Location: Unspecified
(51.5147°N, 7.4673°E)
Time: 06:43:01
(UTC+01:00)

A-11 Canister half - Pass Details

Date: 20 February 2026
Orbit: 1512 x 1687 km, 47.2° (Epoch: 8 March)

Event Time Altitude Azimuth Distance (km) Brightness Sun altitude
Rises 22:44:12 0° 253° (WSW) 4,937 11.9 -42.5°
Reaches altitude 10° 22:47:25 10° 251° (WSW) 3,942 11.3 -42.8°
Enters shadow 22:51:49 30° 244° (WSW) 2,661 10.2 -43.2°
Maximum altitude 22:57:25 68° 171° (S) 1,759 - -43.8°
Drops below altitude 10° 23:07:08 10° 92° (E) 3,837 - -44.6°
Sets 23:10:13 0° 90° (E) 4,800 - -44.9°
